Key statistics
Satellite COSMOS 1378 at a glance.
Uptime
15568
Days in orbit
Revolutions
≈ 16.5
Per day
Orbit
LEO
Low Earth Orbit
Inclination
82.4
Latest
Satellite identification and parameters
Extended collection of information and parameters for COSMOS 1378.
Object identification
Identified? True
Debris? False
Object name: COSMOS 1378
International designator: 1982-059A
Object number (NORAD): 13271
Object ID (CCSDS): 13271
Country: COMMONWEALTH OF INDEPENDENT STATES (CIS)
Current information (Y/N): Y
RCS size: LARGE
Orbital parameters
Decay date: Jan. 23, 2025
Period: 87.441 minutes
Inclination: 82.4152 deg
SMA: 6525.867 km
Apoapsis: 151.262 km
Periapsis: 144.202 km
RAAN: 275.932 deg
Eccentricy: 0.0005409
Argument of periapsis: 215.3495 deg
Mean anomaly: 257.5294 deg
Mean motion: 16.46817424 rev/day
Mean motion (dot): 0.1306323 rev/day2
B* drag term: 0.00027129 1/REarth
Two-line elements (TLE)
Creation date: Jan. 23, 2025, 3:26 a.m.
Reference frame: TEME
Reference center: EARTH
Epoch: Jan. 23, 2025, 1:16 a.m. UTC
TLE line 0: 0 COSMOS 1378
TLE line 1: 1 13271U 82059A 25023.05308424 .13063230 -10597-5 27129-3 0 9996
TLE line 2: 2 13271 82.4152 275.9320 0005409 215.3495 257.5294 16.46817424334392
Live tracking on map
Satellite COSMOS 1378 has decayed and is no longer in orbit. No tracking available.
In-orbit conjunctions
Satellite COSMOS 1378 has decayed and is no longer in orbit. No conjunctions available.
Associated space launch
Tselina-D satellites provided detailed observation of radio sources detected by the smaller Tselina-O satellites as part of the Tselina ELINT system.
COSMOS 1378 was lifted into orbit during the mission ‘Tsiklon-3 | Tselina-D 36’, on board a Tsiklon-3 space rocket.
The launch took place on June 10, 1982, 5:37 p.m. from 32/1.
For more information about the launch, click the button.
Tsiklon-3 | Tselina-D 36
Agency: N/A
Status: Launch Successful
Launch date: June 10, 1982, 5:37 p.m. UTC
Rocket: Tsiklon-3
Launch pad: 32/1
Location: Plesetsk Cosmodrome, Russian Federation
...
Latest news about this satellite
There are no fresh news available about this satellite. Check back as we update our databases every day.
Newsletter sign-up
Weekly statistics, charts and insights to help you stay on top of the space industry.
